Meath Environmental Platform

Observations for Trim Market St

Time AQI Temp °C Hum % Pres Pa CO μg/m³ H₂S μg/m³ NO μg/m³ NO₂ μg/m³ O₃ μg/m³ SO₂ μg/m³ PM1 μg/m³ PM2.5 μg/m³ PM10 μg/m³
Wednesday 26 August 2026
22:23 3 18 75 21,835 0.19 0 1.83 9.49 65.41 0 14.25 17.66 26.02
22:20 3 18 75 22,544 0.2 0 1.82 11.6 62.21 0 13.54 16.23 23.65
22:18 3 18 75 23,424 0.23 0 1.85 9.46 65.84 0 12.83 16.72 24.86
22:14 3 18.1 75 25,399 0.23 0 2.83 33.37 49.66 0 14.96 17.7 29.11
22:10 3 18.2 74 27,698 0.23 0 1.81 31.99 54.81 0 14.25 16.76 24.95
22:05 3 18.3 74 30,133 0.15 0 1.8 11.67 66.14 0 12.83 16.32 24.42
22:04 3 18.3 74 30,719 0.18 0 1.79 27.39 58.14 0 15.68 18.73 27.45
22:03 3 18.3 74 31,363 0.22 0 1.74 9.14 69.71 0 12.11 15.85 22.64
22:02 3 18.3 74 31,855 0.35 0 1.71 10.23 69.81 0 13.54 16.34 23.86
22:00 3 18.3 74 32,621 0.21 0 1.6 10.38 68.08 0 13.54 15.87 23.27
21:59 3 18.4 74 32,945 0.16 0 1.66 10.08 67.65 0 13.54 17.79 27.51
21:58 3 18.4 74 33,247 0.13 0 1.68 11.48 67.27 0 12.11 16.36 25.1
21:57 3 18.4 74 33,564 0.14 0 1.72 12.02 66.71 0 10.69 12.99 19.04
21:55 3 18.4 73 34,228 0.13 0 1.77 9.31 70.63 0 13.54 15.4 23.91
21:54 3 18.5 73 34,491 0.13 0 1.79 12.73 68.27 0 13.54 15.89 23.92
21:50 3 18.5 73 35,001 0.1 0 1.78 9.01 72.91 0 11.4 14.47 20.91
21:49 3 18.5 73 35,388 0.11 0 1.78 10.74 69.09 0 13.54 15.92 24.58
21:46 3 18.6 73 36,752 0.11 0 1.73 11.63 71.61 0 11.4 14.01 19.12
21:39 3 18.7 72 39,992 0.1 0 1.46 11.44 70.07 0 12.83 15.98 24.7
21:35 3 18.8 72 41,562 0.09 0 1.59 11.98 69.49 0 13.54 15.53 22.92